Weather History for Williamtown, NW

Change the Weather History Date:

Monday, March 18, 2013

  Actual Average Record
Temperature  
Mean Temperature 64 °F -  
Max Temperature 72 °F - - ()
Min Temperature 56 °F - - ()
Degree Days  
Heating Degree Days 1    
Growing Degree Days 14 (Base 50)    
Moisture  
Dew Point 54 °F    
Average Humidity 69    
Maximum Humidity 94    
Minimum Humidity 41    
Precipitation  
Precipitation 0.00 in - - ()
Sea Level Pressure  
Sea Level Pressure 30.12 in    
Wind  
Wind Speed 10 mph ()    
Max Wind Speed 17 mph    
Max Gust Speed 29 mph    
Visibility 7.2 miles    
Events Rain    
T = Trace of Precipitation, MM = Missing Value Source: Averaged Metar Reports

Daily Weather History Graph

Daily Weather History Graph

Search for Another Location

Airport:

Trip Planner

Search our weather history database for the weather conditions in past years. The results will help you decide how hot, cold, wet, or windy it might be!

Date:

Astronomy

Mar. 18, 2013 Rise Set
Actual Time 6:54 AM AEDT 7:06 PM AEDT
Civil Twilight 6:29 AM AEDT 7:31 PM AEDT
Nautical Twilight 6:00 AM AEDT 8:00 PM AEDT
Astronomical Twilight 5:31 AM AEDT 8:29 PM AEDT
Moon 12:37 PM AEDT (3/18) 11:07 PM AEDT (3/18)
Length of Visible Light 13h 01m
Length of Day
12h 12m
Waxing Crescent, 34% of the Moon is Illuminated
Mar 18
Waxing Crescent
Mar 20
First Quarter
Mar 27
Full
Apr 3
Last Quarter
Apr 10
New

Hourly Weather History & Observations

Time (AEDT) Temp. Dew Point Humidity Pressure Visibility Wind Dir Wind Speed Gust Speed Precip Events Conditions
12:00 AM 62 °F 56 °F 76% 30.11 in - SSW 15.0 mph - -   Overcast
12:00 AM 62.6 °F 57.2 °F 82% 30.09 in 6.2 mi SSW 15.0 mph 28.8 mph N/A   Overcast
12:30 AM 60.8 °F 57.2 °F 88% 30.09 in 6.2 mi SW 9.2 mph - N/A Rain Light Rain Showers
1:00 AM 60.8 °F 59.0 °F 94% 30.06 in 6.2 mi SW 8.1 mph - N/A   Overcast
1:07 AM 62.6 °F 57.2 °F 82% 30.06 in 6.2 mi SSE 17.3 mph - N/A   Overcast
1:30 AM 64.4 °F 55.4 °F 73% 30.06 in 6.2 mi SSE 13.8 mph - N/A   Mostly Cloudy
2:00 AM 65 °F 53 °F 55% 30.07 in - South 15.0 mph - -  
2:00 AM 64.4 °F 53.6 °F 68% 30.06 in 6.2 mi South 15.0 mph - N/A   Mostly Cloudy
2:30 AM 64.4 °F 55.4 °F 73% 30.06 in 6.2 mi South 13.8 mph - N/A   Mostly Cloudy
3:00 AM 62 °F 56 °F 73% 30.06 in - SSW 13.8 mph - -   Overcast
3:00 AM 62.6 °F 55.4 °F 77% 30.06 in 6.2 mi SSW 13.8 mph - N/A Rain Light Rain Showers
3:30 AM 60.8 °F 57.2 °F 88% 30.06 in 6.2 mi WSW 13.8 mph - N/A   Overcast
4:00 AM 60.8 °F 57.2 °F 88% 30.06 in 5.6 mi WSW 6.9 mph - N/A Rain Light Rain Showers
4:30 AM 59.0 °F 57.2 °F 94% 30.06 in 6.2 mi West 6.9 mph - N/A Rain Light Rain Showers
5:00 AM 59 °F 57 °F 90% 30.08 in - West 5.8 mph - -  
5:00 AM 59.0 °F 57.2 °F 94% 30.06 in 6.2 mi West 5.8 mph - N/A Rain Light Rain Showers
5:30 AM 59.0 °F 57.2 °F 94% 30.06 in 6.2 mi WNW 8.1 mph - N/A   Overcast
6:00 AM 58 °F 54 °F 84% 30.10 in 12 mi West 8.1 mph - -   Mostly Cloudy
6:00 AM 59.0 °F 55.4 °F 88% 30.09 in 6.2 mi West 8.1 mph - N/A   Scattered Clouds
6:30 AM 59.0 °F 53.6 °F 82% 30.09 in 6.2 mi West 8.1 mph - N/A   Scattered Clouds
7:00 AM 57.2 °F 51.8 °F 82% 30.09 in 6.2 mi West 9.2 mph - N/A   Partly Cloudy
7:30 AM 57.2 °F 51.8 °F 82% 30.12 in 6.2 mi West 8.1 mph - N/A   Partly Cloudy
8:00 AM 59 °F 53 °F 75% 30.13 in - West 6.9 mph - -  
8:00 AM 59.0 °F 53.6 °F 82% 30.12 in 6.2 mi West 6.9 mph - N/A   Partly Cloudy
8:30 AM 60.8 °F 53.6 °F 77% 30.12 in - West 8.1 mph - N/A   Clear
9:00 AM 63 °F 53 °F 63% 30.14 in 19 mi West 8.1 mph - -   Partly Cloudy
9:00 AM 62.6 °F 53.6 °F 72% 30.12 in 6.2 mi West 8.1 mph - N/A   Partly Cloudy
9:30 AM 64.4 °F 53.6 °F 68% 30.12 in - WSW 6.9 mph - N/A   Clear
10:00 AM 66.2 °F 53.6 °F 64% 30.15 in - WSW 8.1 mph - N/A   Clear
10:30 AM 68.0 °F 53.6 °F 60% 30.15 in 6.2 mi SW 9.2 mph - N/A   Partly Cloudy
11:00 AM 69 °F 54 °F 48% 30.17 in - SW 10.4 mph - -  
11:00 AM 69.8 °F 53.6 °F 56% 30.15 in 6.2 mi SW 10.4 mph - N/A   Partly Cloudy
11:30 AM 69.8 °F 51.8 °F 53% 30.15 in 6.2 mi SSW 13.8 mph - N/A   Partly Cloudy
12:00 PM 72 °F 55 °F 44% 30.16 in 19 mi South 15.0 mph - -   Partly Cloudy
12:00 PM 71.6 °F 55.4 °F 57% 30.15 in 6.2 mi South 15.0 mph - N/A   Scattered Clouds
12:30 PM 69.8 °F 53.6 °F 56% 30.15 in 6.2 mi SSW 15.0 mph - N/A   Scattered Clouds
1:00 PM 69.8 °F 53.6 °F 56% 30.12 in 6.2 mi South 15.0 mph - N/A   Scattered Clouds
1:30 PM 69.8 °F 55.4 °F 60% 30.12 in 6.2 mi South 15.0 mph - N/A   Scattered Clouds
2:00 PM 71 °F 53 °F 43% 30.14 in - South 13.8 mph - -  
2:00 PM 71.6 °F 53.6 °F 53% 30.12 in 6.2 mi South 13.8 mph - N/A   Mostly Cloudy
2:30 PM 71.6 °F 55.4 °F 57% 30.12 in 6.2 mi South 15.0 mph - N/A   Mostly Cloudy
3:00 PM 72 °F 53 °F 41% 30.13 in 19 mi South 17.3 mph - -   Partly Cloudy
3:00 PM 71.6 °F 53.6 °F 53% 30.12 in 6.2 mi South 17.3 mph - N/A   Scattered Clouds
3:30 PM 71.6 °F 53.6 °F 53% 30.12 in 6.2 mi South 16.1 mph - N/A   Scattered Clouds
4:00 PM 71.6 °F 51.8 °F 50% 30.12 in 6.2 mi SSE 15.0 mph - N/A   Partly Cloudy
4:30 PM 71.6 °F 51.8 °F 50% 30.12 in 6.2 mi South 12.7 mph - N/A   Partly Cloudy
5:00 PM 70 °F 52 °F 43% 30.13 in - SSE 13.8 mph - -  
5:00 PM 69.8 °F 51.8 °F 53% 30.12 in 6.2 mi SSE 13.8 mph - N/A   Scattered Clouds
5:30 PM 69.8 °F 51.8 °F 53% 30.12 in - SSE 15.0 mph - N/A   Clear
6:00 PM 70 °F 53 °F 44% 30.14 in - South 12.7 mph - -  
6:00 PM 69.8 °F 53.6 °F 56% 30.12 in - South 12.7 mph - N/A   Clear
6:30 PM 68.0 °F 53.6 °F 60% 30.12 in - SSE 10.4 mph - N/A   Clear
7:00 PM 66.2 °F 53.6 °F 64% 30.15 in - SSE 8.1 mph - N/A   Clear
7:30 PM 64.4 °F 53.6 °F 68% 30.15 in - SSE 8.1 mph - N/A   Clear
8:00 PM 64 °F 54 °F 60% 30.17 in - SE 5.8 mph - -  
8:00 PM 64.4 °F 53.6 °F 68% 30.15 in - SE 5.8 mph - N/A   Clear
8:30 PM 62.6 °F 55.4 °F 77% 30.15 in 6.2 mi SSE 6.9 mph - N/A   Unknown
9:00 PM 64 °F 55 °F 64% 30.19 in - SSE 8.1 mph - -  
9:00 PM 64.4 °F 55.4 °F 73% 30.18 in 6.2 mi SSE 8.1 mph - N/A   Unknown
9:30 PM 64.4 °F 55.4 °F 73% 30.18 in 6.2 mi SE 6.9 mph - N/A   Scattered Clouds
10:00 PM 64.4 °F 55.4 °F 73% 30.18 in 6.2 mi SE 5.8 mph - N/A   Scattered Clouds
10:30 PM 59.0 °F 57.2 °F 94% 30.18 in 6.2 mi NE 2.3 mph - N/A   Scattered Clouds
11:00 PM 59 °F 56 °F 87% 30.20 in - Calm Calm - -  
11:00 PM 59.0 °F 55.4 °F 88% 30.18 in 6.2 mi Calm Calm - N/A   Scattered Clouds
11:30 PM 57.2 °F 55.4 °F 94% 30.18 in 6.2 mi NW 3.5 mph - N/A   Scattered Clouds